Regional Weather Roundup
Issued by NWS

Home | Current Version | Previous Version | Graphics & Text | Print | Product List | Glossary On
Versions: 1 2 3 4 5 6 7 8 9 10 11 12 13 14 15 16 17 18 19 20 21 22 23 24 25 26 27 28 29 30 31 32 33 34 35 36 37 38 39 40 41 42 43 44 45 46 47 48 49 50
000
ASUS43 KOAX 190202
RWRNE

WEATHER ROUNDUP FOR NEBRASKA
NATIONAL WEATHER SERVICE OMAHA NE
900 PM CDT MON SEP 18 2017

NOTES: SATELLITE DATA IS BEING USED TO AUGMENT CLOUD COVER ABOVE
       12000 FEET.
       "FAIR" INDICATES FEW OR NO CLOUDS BELOW 12,000 FEET WITH NO
       SIGNIFICANT WEATHER AND/OR OBSTRUCTIONS TO VISIBILITY.


NEZ001>004-019>022-054>056-190300-
NEBRASKA PANHANDLE

CITY           SKY/WX    TMP DP  RH WIND       PRES   REMARKS
SCOTTSBLUFF    CLOUDY    62  51  67 E8        29.81S
ALLIANCE       CLEAR     59  47  64 SE8       29.82S
CHADRON        CLEAR     72  38  29 S15       29.74F
SIDNEY         CLEAR     60  38  43 S9        29.88S
$$

NEZ057>060-069>072-079>082-190300-
SOUTHWEST NEBRASKA

CITY           SKY/WX    TMP DP  RH WIND       PRES   REMARKS
NORTH PLATTE   CLEAR     62  56  80 E9        29.87R
IMPERIAL       CLEAR     63  45  51 SE9       29.87S
LEXINGTON      CLEAR     69  60  72 SE7       29.89R
MCCOOK         CLEAR     69  57  65 E7        29.87R
OGALLALA       CLEAR     71  47  42 SE10G16   29.85S
$$

NEZ005>010-023>029-035>040-094-190300-
NORTH CENTRAL NEBRASKA

CITY           SKY/WX    TMP DP  RH WIND       PRES   REMARKS
VALENTINE      PTCLDY    69  51  52 SE10      29.81R
AINSWORTH      CLEAR     66  59  78 S10       29.84R
BROKEN BOW     CLEAR     64  59  83 SE6       29.87S
ORD            CLEAR     60  57  89 S3        29.86R
THEDFORD       CLEAR     68  57  68 SE10      29.86R
$$

NEZ041-046>049-061>064-073>077-083>087-190300-
SOUTH CENTRAL NEBRASKA

CITY           SKY/WX    TMP DP  RH WIND       PRES   REMARKS
GRAND ISLAND   CLEAR     67  65  93 SE6       29.89R
AURORA         CLEAR     64  63  98 SE6       29.88R
HASTINGS       CLEAR     71  63  75 SE7       29.89R
HEBRON         CLEAR     69  65  87 CALM      29.88R
HOLDREGE       CLEAR     64  57  79 E6        29.89R
KEARNEY        CLEAR     69  62  78 SE5       29.89R
YORK           CLEAR     66  66 100 CALM      29.89R
$$

NEZ011>018-030>034-042>045-190300-
NORTHEAST NEBRASKA

CITY           SKY/WX    TMP DP  RH WIND       PRES   REMARKS
NORFOLK        CLEAR     64  64 100 SE7       29.87R
ALBION         CLEAR     65  64  97 CALM      29.88R FOG
BLAIR          PTCLDY    69  67  92 SE6       29.90S
COLUMBUS       CLEAR     67  65  93 SE5       29.88R
FREMONT        PTCLDY    66  65  96 E5        29.89S
TEKAMAH        PTCLDY    67  65  93 SE6       29.89R
WAYNE          CLEAR     63  60  91 S5        29.88R FOG
$$

NEZ050>053-065>068-078-088>093-190300-
SOUTHEAST NEBRASKA

CITY           SKY/WX    TMP DP  RH WIND       PRES   REMARKS
LINCOLN        CLEAR     68  64  87 SE5       29.89R
OMAHA EPPLEY   MOCLDY    71  65  81 SE9       29.90R
BEATRICE       CLEAR     70  65  83 E5        29.88S
FALLS CITY     CLEAR     69  66  90 SE5       29.89R
PLATTSMOUTH    CLEAR     68  67  98 SE5       29.91R
$$

NEZ044-045-051>053-067-190300-
OMAHA AREA

CITY           SKY/WX    TMP DP  RH WIND       PRES   REMARKS
OMAHA EPPLEY   MOCLDY    71  65  81 SE9       29.90R
BLAIR          PTCLDY    69  67  92 SE6       29.90S
FREMONT        PTCLDY    66  65  96 E5        29.89S
MILLARD        PTCLDY    72  69  90 SE3       29.90R
OFFUTT AFB     CLEAR     69  66  91 E7        29.89R
PLATTSMOUTH    CLEAR     68  67  98 SE5       29.91R
$$




USA.gov is the U.S. government's official web portal to all federal, state and local government web resources and services.